CAPE
0 0 0 0 0 0 0 0 0 0 0 0 0 0 0 1 10 142 254 272 164 236 229 420 500 496 372 252 173 103 69 64 116 295 359 263 295 236 97 68 68 15 0 18 11 26 29 10 8
0 0 0 0 0 0 0 0 0 0 0 0 0 0 0 8 115 223 403 317 205 123 164 408 592 543 413 284 209 127 120 61 17 10 135 188 200 171 39 22 8 6 0 115 31 25 19 8 5
0 0 0 0 0 0 0 0 0 0 0 0 0 0 0 111 261 315 368 321 273 110 156 284 445 633 473 300 268 203 151 95 10 0 0 3 42 16 20 6 6 4 2 71 41 25 15 0 0
0 0 0 0 0 0 0 0 0 0 0 0 0 0 71 144 242 108 373 320 373 229 201 383 428 505 539 443 314 274 160 74 34 0 0 0 1 4 11 2 5 5 31 56 64 25 12 0 9
0 0 0 0 0 0 0 0 0 0 0 0 0 0 0 0 0 0 322 304 431 386 277 417 426 567 570 514 419 344 176 94 78 12 0 0 0 0 3 3 7 21 25 31 48 20 1 1 8
0 0 0 0 0 0 0 0 0 0 0 0 0 0 0 0 0 0 165 408 376 455 406 278 317 529 652 574 508 410 194 90 58 10 0 0 0 0 0 0 1 22 34 29 36 14 8 15 7
0 0 0 0 0 0 0 0 0 0 0 0 0 0 0 0 0 0 12 319 415 430 421 341 255 225 352 556 521 402 255 125 61 14 0 0 0 0 0 1 4 2 13 18 27 12 5 19 2
0 0 0 0 0 0 0 0 0 0 0 0 0 0 0 0 0 0 0 2 351 416 416 389 271 205 127 138 293 324 295 218 132 51 0 0 0 0 0 3 3 4 8 7 19 10 6 27 17
0 0 0 0 0 0 0 0 0 0 0 0 0 0 0 0 0 0 0 0 0 53 406 427 408 414 448 423 515 360 285 287 215 129 1 0 0 0 0 2 0 6 10 16 18 10 0 26 28
0 0 0 0 0 0 0 0 0 0 0 0 0 0 0 0 0 0 0 0 0 0 0 0 342 472 540 551 523 513 646 500 432 319 199 0 0 0 1 4 1 0 4 15 16 15 0 0 34
0 0 0 0 0 0 0 0 0 0 0 0 0 0 0 0 0 0 0 0 0 0 0 0 0 0 27 352 569 673 577 473 410 444 315 178 5 1 2 2 0 0 0 9 18 21 8 8 17
0 0 0 0 0 0 0 0 0 0 0 0 0 0 0 0 0 0 0 0 0 0 0 0 0 0 0 0 0 148 526 690 538 584 499 296 149 1 0 0 3 0 0 1 13 21 19 10 9
0 0 0 0 0 0 0 0 0 0 0 0 0 0 0 0 0 0 0 0 0 0 0 0 0 0 0 0 0 0 0 0 197 386 379 401 334 91 0 4 3 1 0 0 1 16 22 17 10
0 0 0 0 0 0 0 0 0 0 0 0 0 0 0 0 0 0 0 0 0 0 0 0 0 0 0 0 0 0 0 0 0 0 38 276 265 235 111 20 4 5 5 0 0 2 36 28 11
0 0 0 0 0 0 0 0 0 0 0 0 0 0 0 0 0 0 0 0 0 0 0 0 0 0 0 0 0 0 0 0 0 0 0 0 44 31 86 48 16 8 0 9 0 3 23 44 29
0 0 0 0 0 0 0 0 0 0 0 0 0 0 0 0 0 0 0 0 0 0 0 0 0 0 0 0 0 0 0 0 0 0 0 0 0 0 30 3 20 4 19 0 0 0 3 4 60
0 0 0 0 0 0 0 0 0 0 0 0 0 0 0 0 0 0 0 0 0 0 0 0 0 0 0 0 0 0 0 0 0 0 0 0 0 0 5 56 60 21 42 10 5 3 7 7 18
0 0 0 0 0 0 0 0 0 0 0 0 0 0 0 0 0 0 0 0 0 0 0 0 0 0 0 0 0 0 0 0 0 0 0 0 0 0 0 48 83 107 120 70 78 33 23 21 4
0 0 0 0 0 0 0 0 0 0 0 0 0 0 0 0 0 0 0 0 0 0 0 0 0 0 0 0 0 0 0 0 0 0 0 0 0 0 0 4 50 119 130 125 95 44 31 9 22
0 0 0 0 0 0 0 0 0 0 0 0 0 0 0 0 0 0 0 0 0 0 0 0 0 0 0 0 0 0 0 0 0 0 0 0 0 0 0 0 26 35 47 174 139 91 38 39 1
0 0 0 0 0 0 0 0 0 0 0 0 0 0 0 0 0 0 0 0 0 0 0 0 0 0 0 0 0 0 0 0 0 0 0 0 0 0 0 0 0 42 79 19 74 156 108 60 13
0 0 0 0 0 0 0 0 0 0 0 0 0 0 0 0 0 0 0 0 0 0 0 0 0 0 0 0 0 0 0 0 0 0 0 0 0 0 0 0 0 0 4 32 3 133 207 87 96
0 0 0 0 0 0 0 0 0 0 0 0 0 0 0 0 0 0 0 0 0 0 0 0 0 0 0 0 0 0 0 0 0 0 0 0 0 0 0 0 0 0 0 0 18 83 208 147 20
0 0 0 0 0 0 0 0 0 0 0 0 0 0 0 0 0 0 0 0 0 0 0 0 0 0 0 0 0 0 0 0 0 0 0 0 0 0 0 0 0 0 0 0 0 51 99 155 59
0 0 0 0 0 0 0 0 0 0 0 0 0 0 0 0 0 0 0 0 0 0 0 0 0 0 0 0 0 0 0 0 0 0 0 0 0 1 2 3 0 0 0 0 0 0 35 54 84
0 0 0 0 0 0 0 0 0 0 0 0 0 0 0 0 0 0 0 0 0 0 0 0 0 0 0 0 0 0 0 1 1 0 0 0 0 2 8 9 13 8 4 0 0 0 0 0 28
0 0 0 0 0 0 0 0 0 0 0 0 0 0 0 0 0 0 0 0 0 0 0 0 0 0 0 0 0 0 1 0 1 0 2 0 1 0 0 0 0 8 18 18 14 0 0 0 0
0 0 0 0 0 0 0 0 0 0 0 0 0 0 0 0 0 0 0 0 0 0 0 0 0 0 0 2 0 0 1 0 0 2 3 0 1 2 4 3 2 9 13 19 21 16 15 11 0
0 0 0 0 0 0 0 0 0 0 0 0 0 0 0 0 0 0 0 0 0 0 0 0 0 0 0 0 0 0 0 1 2 1 1 1 2 2 3 6 7 0 5 11 3 2 8 20 12
0 0 0 0 0 0 0 0 0 0 0 0 0 0 0 0 0 0 0 0 0 0 0 0 0 0 0 0 0 1 0 0 0 0 0 1 0 1 1 2 3 3 5 4 1 1 0 10 25
CIN
0 0 0 0 0 0 0 0 0 0 0 0 0 0 0 -29 -18 -24 -113 -103 -173 -126 -129 -96 -62 -53 -46 -60 -101 -136 -151 -151 -122 -84 -81 -106 -95 -110 -163 -203 -237 -6 -1 -57 -5 -2 -4 -1 -2
0 0 0 0 0 0 0 0 0 0 0 0 0 0 0 -63 -154 -116 -61 -132 -169 -200 -165 -79 -42 -36 -38 -58 -96 -142 -122 -168 -218 -119 -144 -135 -135 -152 -236 -12 -13 -7 0 -196 -136 -3 -3 -1 -3
0 0 0 0 0 0 0 0 0 0 0 0 0 0 0 -133 -138 -99 -127 -152 -168 -246 -185 -105 -62 -13 -15 -35 -38 -66 -109 -154 -163 0 0 -15 -245 -89 -10 -14 -8 -4 -11 -234 -113 -3 -1 -1 0
0 0 0 0 0 0 0 0 0 0 0 0 0 0 -252 -254 -159 -268 -141 -154 -119 -174 -186 -90 -61 -21 -10 -15 -34 -36 -93 -179 -245 0 0 0 0 -1 -2 -4 -3 -2 -6 -221 -237 -5 -2 0 -3
0 0 0 0 0 0 0 0 0 0 0 0 0 0 0 0 0 0 -144 -159 -85 -94 -148 -89 -84 -29 -8 -11 -17 -26 -96 -174 -199 -332 0 0 0 0 -1 -3 -4 -3 -4 -6 -104 -3 -1 -1 -10
0 0 0 0 0 0 0 0 0 0 0 0 0 0 0 0 0 0 -234 -85 -107 -61 -84 -126 -149 -45 -5 -5 -8 -10 -75 -160 -189 -304 0 0 0 0 0 0 -1 -9 -5 -3 -7 -1 -4 -7 -8
0 0 0 0 0 0 0 0 0 0 0 0 0 0 0 0 0 0 -46 -119 -81 -73 -83 -97 -114 -154 -92 -15 -10 -20 -40 -100 -181 -299 0 0 0 0 0 -6 -6 -12 -3 -8 -4 -4 -6 -6 -4
0 0 0 0 0 0 0 0 0 0 0 0 0 0 0 0 0 0 0 -380 -102 -85 -80 -79 -113 -147 -191 -168 -78 -45 -37 -57 -121 -179 0 0 0 0 0 -9 -11 -6 -6 -4 -6 -8 -8 -6 -9
0 0 0 0 0 0 0 0 0 0 0 0 0 0 0 0 0 0 0 0 0 -204 -76 -55 -51 -40 -39 -43 -12 -40 -60 -50 -76 -107 -18 0 0 0 0 -5 -1 -10 -9 -4 -13 -7 0 -5 -9
0 0 0 0 0 0 0 0 0 0 0 0 0 0 0 0 0 0 0 0 0 0 0 0 -80 -18 -4 -8 -16 -13 -1 -7 -11 -25 -59 0 0 0 -19 -2 -4 0 -12 -7 -7 -12 0 0 0
0 0 0 0 0 0 0 0 0 0 0 0 0 0 0 0 0 0 0 0 0 0 0 0 0 0 -21 -34 -1 0 -1 -3 -3 -2 -9 -45 -1 -8 -17 -10 0 0 0 -9 -5 -6 -10 -4 0
0 0 0 0 0 0 0 0 0 0 0 0 0 0 0 0 0 0 0 0 0 0 0 0 0 0 0 0 0 -96 -3 0 -1 0 0 -4 -37 -29 -1 0 -2 -1 0 -3 -1 -1 -2 -2 -1
0 0 0 0 0 0 0 0 0 0 0 0 0 0 0 0 0 0 0 0 0 0 0 0 0 0 0 0 0 0 0 0 -17 -5 -4 -1 -2 -27 -1 -15 -10 -11 0 0 -1 -1 -3 -1 -1
0 0 0 0 0 0 0 0 0 0 0 0 0 0 0 0 0 0 0 0 0 0 0 0 0 0 0 0 0 0 0 0 0 0 -35 -16 -3 -1 -28 -67 -24 -30 -17 0 0 -1 0 -2 -4
0 0 0 0 0 0 0 0 0 0 0 0 0 0 0 0 0 0 0 0 0 0 0 0 0 0 0 0 0 0 0 0 0 0 0 0 -13 -45 -38 -73 -24 -25 -8 -3 0 -9 -33 -3 -1
0 0 0 0 0 0 0 0 0 0 0 0 0 0 0 0 0 0 0 0 0 0 0 0 0 0 0 0 0 0 0 0 0 0 0 0 0 0 -6 -6 -30 -83 -25 -3 0 0 -12 -21 -3
0 0 0 0 0 0 0 0 0 0 0 0 0 0 0 0 0 0 0 0 0 0 0 0 0 0 0 0 0 0 0 0 0 0 0 0 0 0 0 -3 -7 -38 -5 -51 -4 -10 -2 -8 -2
0 0 0 0 0 0 0 0 0 0 0 0 0 0 0 0 0 0 0 0 0 0 0 0 0 0 0 0 0 0 0 0 0 0 0 0 0 0 0 -1 -3 -2 -4 -14 -10 -6 -10 -11 -3
0 0 0 0 0 0 0 0 0 0 0 0 0 0 0 0 0 0 0 0 0 0 0 0 0 0 0 0 0 0 0 0 0 0 0 0 0 0 0 0 -3 -3 -3 -1 -6 -37 -14 -50 -235
0 0 0 0 0 0 0 0 0 0 0 0 0 0 0 0 0 0 0 0 0 0 0 0 0 0 0 0 0 0 0 0 0 0 0 0 0 0 0 0 -2 -5 -3 -2 -2 0 -9 -10 -1
0 0 0 0 0 0 0 0 0 0 0 0 0 0 0 0 0 0 0 0 0 0 0 0 0 0 0 0 0 0 0 0 0 0 0 0 0 0 0 0 0 -5 -4 -7 -7 -13 -4 -18 -55
0 0 0 0 0 0 0 0 0 0 0 0 0 0 0 0 0 0 0 0 0 0 0 0 0 0 0 0 0 0 0 0 0 0 0 0 0 0 0 0 0 0 -4 -6 -2 -7 -12 -25 0
0 0 0 0 0 0 0 0 0 0 0 0 0 0 0 0 0 0 0 0 0 0 0 0 0 0 0 0 0 0 0 0 0 0 0 0 0 0 0 0 0 0 0 0 -7 -1 -3 -15 -34
0 0 0 0 0 0 0 0 0 0 0 0 0 0 0 0 0 0 0 0 0 0 0 0 0 0 0 0 0 0 0 0 0 0 0 0 0 0 0 0 0 0 0 0 0 -12 -2 -4 -22
0 0 0 0 0 0 0 0 0 0 0 0 0 0 0 0 0 0 0 0 0 0 0 0 0 0 0 0 0 0 0 0 0 0 0 0 0 0 0 0 0 0 0 0 0 0 -13 -3 -2
0 0 0 0 0 0 0 0 0 0 0 0 0 0 0 0 0 0 0 0 0 0 0 0 0 0 0 0 0 0 -1 -1 -1 -1 0 0 -1 -1 0 0 0 0 0 0 0 0 0 0 -1
0 0 0 0 0 0 0 0 0 0 0 0 0 0 0 0 0 0 0 0 0 0 0 0 0 0 -1 0 -1 0 -1 0 -1 -1 0 0 -1 -1 0 0 -13 -1 0 -1 0 -1 -1 0 0
0 0 0 0 0 0 0 0 0 0 0 0 0 0 0 0 0 0 0 0 0 0 0 0 -1 -2 0 -1 0 0 0 0 0 0 0 -1 0 0 0 -1 -3 0 0 0 0 -1 -1 -2 0
0 0 0 0 0 0 0 0 0 0 0 0 0 0 0 0 0 0 0 0 0 0 0 0 -1 0 0 0 -1 0 0 -1 0 0 0 0 0 0 0 0 0 0 -1 -1 -1 0 -1 -2 -1
0 0 0 0 0 0 0 0 0 0 0 0 0 0 0 0 0 0 0 0 0 0 0 -1 0 0 0 -1 0 0 -1 -1 0 0 0 0 0 0 0 0 0 0 0 0 0 0 -1 -1 -1
Wind_Speed
25 24 22 17 11 9 11 11 10 10 10 12 13 10 16 17 18 15 15 15 18 13 13 15 15 14 13 11 9 8 8 8 8 7 7 6 6 6 5 5 7 12 13 10 7 7 6 5 5
22 21 16 17 11 10 14 9 8 8 13 13 11 10 10 13 15 14 12 20 17 13 12 13 12 12 12 11 10 9 7 6 6 6 6 5 5 5 6 7 8 10 14 11 7 6 6 5 3
22 18 15 12 9 8 14 13 9 11 13 10 10 12 14 13 15 14 18 16 14 12 11 10 10 10 9 9 8 7 6 5 5 5 5 4 4 5 7 8 10 11 10 7 7 7 8 6 3
16 13 16 10 8 13 16 14 12 10 11 13 14 12 12 13 14 16 17 14 12 10 10 9 7 8 7 6 5 4 3 3 3 3 4 5 5 6 7 10 10 10 9 8 7 7 7 7 5
13 17 11 13 16 20 16 16 13 10 12 11 14 11 14 13 14 16 17 13 12 10 9 8 6 5 5 5 4 2 2 2 1 2 4 5 5 6 7 9 9 10 9 11 10 8 7 8 7
13 19 13 13 18 17 19 16 14 9 8 13 15 14 16 12 15 20 18 15 13 9 8 7 5 4 3 2 1 1 3 3 3 3 4 6 8 8 10 8 8 11 9 12 12 8 9 7 7
16 16 19 24 22 21 19 17 12 10 9 12 17 19 18 13 17 20 19 17 14 11 8 6 5 3 1 2 3 4 5 5 6 7 8 8 9 10 11 10 10 11 11 10 11 11 12 10 9
17 20 21 18 21 22 18 18 19 16 14 17 17 23 24 11 18 19 17 17 15 12 9 7 6 5 3 4 4 6 6 7 7 8 9 10 11 11 12 12 13 14 15 13 13 13 14 13 13
16 20 22 22 21 20 18 20 17 18 17 16 19 28 21 18 20 19 18 16 16 14 11 11 10 9 8 10 11 8 9 9 10 11 12 12 13 14 14 14 15 16 18 16 15 16 18 17 17
15 21 23 22 22 22 21 22 25 22 20 23 26 24 21 23 23 24 21 20 16 13 14 16 14 13 13 13 15 14 14 13 13 14 14 13 14 16 16 16 15 16 18 19 18 18 20 22 20
18 22 25 24 25 25 26 26 23 23 25 23 29 28 20 25 26 25 25 22 20 17 16 16 17 18 17 17 19 20 19 18 18 16 17 18 18 19 20 19 18 19 19 21 21 21 22 23 24
23 24 27 26 25 25 26 26 24 22 21 26 21 25 24 26 27 26 25 24 24 19 19 19 19 18 19 20 20 20 21 23 23 21 19 20 21 21 20 20 20 21 21 22 22 23 24 25 26
24 27 26 26 26 27 26 27 27 27 24 21 21 22 24 25 28 24 23 23 24 23 20 21 19 19 19 20 22 23 24 24 25 25 25 24 23 24 24 24 22 21 22 23 24 25 26 26 27
23 26 27 25 25 26 27 28 25 23 19 19 17 18 20 22 22 19 20 24 26 23 21 22 21 20 20 21 23 25 28 29 28 26 26 27 26 26 27 25 26 26 24 24 25 25 26 28 28
23 28 25 22 23 23 27 29 19 19 17 19 17 18 19 20 18 20 27 26 26 20 19 20 21 20 21 22 24 25 27 29 30 31 30 29 28 28 28 28 29 30 27 28 27 28 28 28 31
23 24 26 18 21 20 24 29 19 19 20 21 21 21 21 19 20 25 26 22 18 17 19 20 21 22 23 24 25 26 27 28 28 28 29 29 30 28 27 30 31 30 31 29 33 31 32 32 31
20 27 26 26 22 25 23 30 23 22 23 24 25 25 25 24 25 25 21 16 16 17 18 21 23 24 25 25 26 27 27 27 27 28 29 29 30 31 32 30 31 33 34 34 33 32 35 35 34
24 26 25 27 25 28 32 40 40 30 29 30 28 25 25 24 22 17 13 13 15 16 19 22 24 26 27 27 27 28 28 28 28 29 28 28 28 28 29 32 32 32 35 38 38 38 36 34 37
26 27 30 30 27 33 30 37 43 35 33 32 25 22 18 14 11 10 11 13 16 18 20 24 28 30 30 30 30 30 31 32 31 28 26 25 23 24 26 28 30 34 35 36 37 39 39 38 34
24 28 30 30 27 32 36 45 46 37 22 20 19 15 12 11 10 10 11 14 16 19 23 27 33 35 33 32 32 33 34 34 33 30 26 24 24 24 25 27 28 30 34 36 37 38 43 41 34
26 27 29 30 34 31 38 36 28 23 18 17 15 15 13 12 12 12 14 16 17 22 27 32 36 37 35 34 35 35 35 35 32 31 32 30 30 30 29 29 29 28 32 35 34 37 41 46 44
30 24 25 30 34 32 30 40 36 25 20 15 13 13 13 13 15 15 17 17 19 26 32 36 38 39 37 35 36 37 37 37 34 35 35 33 31 33 32 34 34 35 34 37 35 34 38 40 50
27 25 28 30 31 34 28 30 30 19 18 16 14 12 14 15 17 17 19 22 25 30 37 40 42 41 38 37 36 36 35 36 38 38 39 38 38 37 37 39 41 41 40 42 41 37 36 38 44
23 27 27 28 28 34 27 24 25 20 19 17 16 15 15 18 20 19 23 27 30 34 41 44 41 39 37 37 36 35 37 39 42 42 41 41 41 40 41 45 47 48 47 44 46 44 41 39 41
23 27 32 33 31 33 22 27 23 25 19 17 19 17 19 21 22 25 27 29 36 41 43 41 40 40 40 39 37 37 38 40 42 42 40 41 42 41 41 44 48 48 49 49 47 50 47 44 40
21 24 31 37 35 36 28 33 29 22 16 20 17 18 22 24 25 29 29 35 41 43 42 40 41 42 42 40 40 41 41 42 41 40 40 40 39 40 41 44 46 47 46 46 46 48 49 48 45
24 27 23 32 33 39 34 32 31 24 20 17 15 20 23 25 29 30 33 40 44 42 41 41 42 43 41 42 43 41 39 39 40 40 39 37 35 37 43 44 46 48 47 45 47 48 48 46 46
25 24 30 28 39 42 36 38 38 27 19 19 17 21 26 29 37 34 39 43 41 40 40 39 41 43 43 43 42 41 39 38 38 37 35 32 33 37 37 37 39 40 42 45 44 47 48 46 46
28 31 28 29 31 40 46 37 24 25 26 23 21 27 32 41 42 41 42 39 38 38 39 40 42 42 42 43 42 40 39 37 35 33 31 30 32 33 34 34 31 33 37 40 43 43 47 47 45
27 29 28 36 38 35 40 49 37 31 26 24 32 36 42 42 44 42 41 40 39 39 41 43 41 42 42 42 41 38 36 34 32 30 28 25 26 27 28 27 28 27 32 38 46 47 47 48 47
Wind_Direction
277 290 305 331 15 20 352 6 8 21 33 10 5 28 350 343 333 7 21 21 5 67 98 118 122 119 117 113 102 93 91 82 67 54 59 65 69 67 54 25 341 308 302 306 322 328 329 339 332
269 274 289 315 4 352 351 14 19 33 358 356 9 22 25 10 356 15 32 336 9 56 90 115 123 123 122 118 117 108 94 75 61 50 43 36 46 44 17 346 332 316 299 297 313 319 320 331 347
274 309 329 0 3 352 346 350 14 3 353 16 14 356 348 356 359 356 342 3 28 58 84 103 114 125 127 121 114 106 97 83 58 44 45 38 30 3 351 337 321 313 304 305 306 305 299 301 291
315 336 319 350 350 333 324 340 348 7 360 347 343 354 1 359 1 351 352 11 32 67 86 59 98 126 127 121 117 101 83 74 53 37 24 8 351 346 334 325 318 309 302 298 297 297 294 277 274
334 314 335 333 319 306 321 322 339 351 347 352 345 344 342 359 357 346 335 4 17 54 85 67 86 111 130 133 135 118 62 43 31 356 339 334 327 323 321 321 313 306 302 290 289 287 285 270 268
330 307 327 326 314 316 309 321 331 342 343 339 333 327 330 355 338 314 322 339 353 25 45 66 82 94 81 121 163 269 316 321 324 329 322 315 310 311 306 303 301 300 296 291 288 280 273 266 258
312 314 311 301 304 303 314 323 331 336 331 329 327 317 322 336 323 311 316 327 344 1 18 34 51 111 67 329 302 292 297 296 298 302 306 308 306 305 299 293 291 287 285 283 282 278 269 264 254
313 308 309 312 306 304 321 321 321 327 329 326 323 305 300 331 318 315 322 329 334 351 359 2 4 4 345 315 289 289 281 281 281 284 290 295 298 298 295 290 286 284 281 275 273 274 267 264 260
322 308 306 302 304 313 322 318 328 326 322 324 312 287 308 315 317 314 319 325 329 344 351 343 337 333 329 322 316 292 286 282 281 281 284 286 292 292 289 285 285 280 278 275 271 266 264 266 261
317 305 303 302 303 308 315 312 311 317 319 308 297 300 306 301 302 301 308 314 326 336 337 331 326 323 321 317 313 310 305 297 289 286 286 283 284 289 286 283 278 276 275 273 269 265 262 262 261
314 303 302 301 303 306 306 307 313 314 311 309 297 297 303 298 296 300 299 308 315 325 327 324 320 319 317 313 310 307 307 304 299 291 286 287 286 288 289 285 277 277 273 274 269 266 265 261 259
305 302 297 301 306 308 307 311 310 308 304 312 315 306 303 300 297 300 302 306 310 321 321 318 315 314 313 312 310 307 303 300 298 297 291 285 283 282 281 281 280 273 273 270 269 265 264 260 255
302 301 302 303 306 306 308 306 307 306 307 309 307 305 302 300 297 302 306 310 313 317 321 319 316 313 312 310 308 306 305 304 302 299 294 290 283 278 279 278 275 273 270 268 267 267 262 259 255
310 305 303 306 307 309 308 309 314 316 322 315 310 306 305 304 303 308 313 312 312 319 320 321 319 315 313 311 308 306 304 303 302 302 299 295 290 285 282 273 273 272 270 265 264 264 263 259 255
312 305 308 309 311 312 315 310 309 314 320 317 316 313 308 307 308 306 310 312 316 323 327 327 327 326 322 318 314 310 307 304 302 300 299 296 292 286 288 278 271 272 268 267 261 264 260 262 256
311 310 305 317 318 321 319 309 321 323 318 315 312 310 307 305 303 306 310 315 324 328 328 329 329 327 323 319 316 314 311 309 307 305 302 299 294 289 284 279 281 277 269 260 260 260 261 262 261
314 304 305 309 321 316 317 310 320 323 318 312 308 306 304 302 302 306 310 317 324 329 331 330 330 327 324 320 317 314 312 310 309 308 306 304 299 295 291 285 282 275 273 270 260 257 258 259 256
307 307 310 309 317 314 307 295 298 311 311 309 309 308 306 305 306 313 321 327 329 333 333 331 330 328 325 321 317 313 311 310 309 307 306 304 302 299 293 289 284 278 273 269 270 265 258 256 255
306 306 304 307 314 310 310 305 292 309 308 306 311 314 316 321 329 332 337 339 336 333 333 332 331 328 324 320 317 314 310 308 307 307 306 305 303 301 298 294 287 281 276 272 268 265 266 256 250
307 307 307 310 314 312 307 296 289 303 316 322 324 330 332 334 337 339 342 339 338 338 335 333 332 329 323 319 316 313 311 310 309 308 306 304 300 297 296 292 289 285 279 274 270 266 262 265 248
305 306 310 311 310 310 309 308 318 324 322 325 326 330 333 334 336 339 336 335 337 335 333 331 330 330 326 321 317 313 310 307 304 300 298 295 293 291 288 286 285 283 280 276 275 267 262 258 256
303 315 315 313 313 311 319 307 313 319 314 321 325 326 327 329 332 335 334 333 331 331 331 329 328 328 325 321 317 312 308 305 301 301 299 296 290 286 283 281 278 277 277 275 274 272 265 261 256
307 315 313 312 310 310 314 312 320 331 324 324 328 325 323 326 328 330 330 329 327 327 327 327 325 325 324 322 319 315 311 306 305 302 298 294 288 284 280 278 276 273 272 271 270 269 267 262 258
316 313 313 313 311 304 313 314 317 324 328 330 334 329 326 328 327 327 327 328 328 328 326 326 326 327 326 323 320 315 311 309 306 304 300 297 294 290 283 278 274 271 268 266 266 266 264 263 259
313 311 305 303 303 303 317 310 312 317 323 326 327 330 330 332 330 326 325 327 326 326 329 330 329 327 326 324 321 317 313 310 306 304 301 299 296 292 288 282 276 272 269 266 263 261 261 260 260
310 311 303 298 300 303 310 304 316 326 327 326 326 325 327 331 331 327 326 325 324 327 330 331 330 328 327 326 323 320 316 313 311 308 305 301 299 296 292 284 280 276 271 267 262 259 257 257 257
307 302 313 303 304 300 301 306 311 317 312 323 325 326 328 333 336 331 326 324 325 329 332 333 332 330 330 327 324 322 320 316 313 310 306 303 298 295 290 287 284 279 273 268 262 257 254 254 253
301 308 301 303 298 296 300 303 306 314 326 336 335 331 333 333 332 329 325 325 329 332 334 335 334 333 332 329 327 325 323 320 317 314 310 305 300 298 295 291 287 284 275 267 260 256 253 252 251
298 296 297 299 296 296 297 300 322 327 327 330 329 327 328 327 326 324 323 330 333 335 336 337 336 336 334 333 331 328 326 325 322 318 313 308 303 299 295 293 291 285 278 265 258 256 252 251 250
296 295 295 291 293 294 294 291 307 314 323 327 321 320 321 324 323 322 325 330 334 336 338 338 339 338 337 336 335 334 332 331 328 324 319 313 307 302 298 295 293 288 275 265 256 255 253 249 249